• In Latvia
  • List of Countries
  • For 7 days
  • Water Temperature
  • Satellite Maps
  • Weather Map
  • Weather Widgets
  • user-avatar
    Login

    Hourly Weather Reading

    Today, 21 January, Sunday

    Time Temperature Precipitation Wind Pressure Humidity
    00:00 -1°C° 0 mm 2 mps 755 mmHg 93%
    01:00 +2°C° 0 mm 1 mps 755 mmHg 91%
    02:00 +2°C° 0 mm 1 mps 756 mmHg 90%
    03:00 +3°C° 0 mm 1 mps 756 mmHg 88%
    04:00 +3°C° 0.1 mm 1 mps 756 mmHg 88%
    05:00 +3°C° 0.1 mm 1 mps 757 mmHg 88%
    06:00 +3°C° 0 mm 1 mps 757 mmHg 88%
    07:00 +2°C° 0.8 mm 2 mps 757 mmHg 88%
    08:00 +1°C° 0.8 mm 3 mps 757 mmHg 89%
    09:00 +1°C° 0.8 mm 3 mps 756 mmHg 90%
    10:00 +1°C° 1.3 mm 4 mps 756 mmHg 91%
    11:00 +1°C° 1.3 mm 5 mps 755 mmHg 93%
    12:00 +2°C° 1.3 mm 6 mps 754 mmHg 95%
    13:00 +2°C° 2.4 mm 5 mps 754 mmHg 96%
    14:00 +3°C° 2.4 mm 5 mps 753 mmHg 97%
    15:00 +4°C° 2.4 mm 4 mps 753 mmHg 98%
    16:00 +5°C° 1.3 mm 4 mps 752 mmHg 98%
    17:00 +6°C° 1.3 mm 4 mps 752 mmHg 98%
    18:00 +7°C° 1.3 mm 3 mps 752 mmHg 98%
    19:00 +7°C° 0.3 mm 4 mps 752 mmHg 98%
    20:00 +8°C° 0.3 mm 4 mps 752 mmHg 97%
    21:00 +8°C° 0.3 mm 5 mps 752 mmHg 97%
    22:00 +8°C° 0 mm 5 mps 752 mmHg 96%
    23:00 +9°C° 0 mm 5 mps 752 mmHg 96%

    Tomorrow, 22 January, Monday

    Time Temperature Precipitation Wind Pressure Humidity
    00:00 +9°C° 0 mm 5 mps 752 mmHg 96%
    01:00 +8°C° 0 mm 5 mps 752 mmHg 95%
    02:00 +8°C° 0 mm 4 mps 752 mmHg 95%
    03:00 +7°C° 0 mm 4 mps 752 mmHg 95%
    04:00 +6°C° 0 mm 4 mps 753 mmHg 95%
    05:00 +7°C° 0 mm 3 mps 753 mmHg 94%
    06:00 +5°C° 0 mm 3 mps 753 mmHg 94%
    07:00 +5°C° 0 mm 3 mps 754 mmHg 94%
    08:00 +5°C° 0 mm 3 mps 755 mmHg 94%
    09:00 +5°C° 0 mm 3 mps 755 mmHg 93%
    10:00 +6°C° 0 mm 4 mps 756 mmHg 89%
    11:00 +7°C° 0 mm 4 mps 756 mmHg 84%
    12:00 +8°C° 0 mm 5 mps 757 mmHg 79%
    13:00 +8°C° 0 mm 4 mps 757 mmHg 80%
    14:00 +9°C° 0 mm 3 mps 758 mmHg 81%
    15:00 +8°C° 0 mm 3 mps 758 mmHg 82%
    16:00 +7°C° 0 mm 3 mps 758 mmHg 85%
    17:00 +5°C° 0 mm 3 mps 759 mmHg 87%
    18:00 +4°C° 0 mm 3 mps 759 mmHg 90%
    19:00 +4°C° 0 mm 3 mps 759 mmHg 90%
    20:00 +4°C° 0 mm 3 mps 760 mmHg 91%
    21:00 +4°C° 0 mm 3 mps 760 mmHg 91%
    22:00 +4°C° 0 mm 3 mps 760 mmHg 91%
    23:00 +4°C° 0 mm 3 mps 760 mmHg 92%

    Day after tomorrow, 23 January, Tuesday

    Time Temperature Precipitation Wind Pressure Humidity
    00:00 +4°C° 0 mm 3 mps 760 mmHg 93%
    01:00 +4°C° 0 mm 4 mps 759 mmHg 93%
    02:00 +5°C° 0 mm 4 mps 759 mmHg 94%
    03:00 +6°C° 0 mm 5 mps 758 mmHg 94%
    04:00 +6°C° 0 mm 5 mps 758 mmHg 94%
    05:00 +7°C° 0 mm 6 mps 757 mmHg 94%
    06:00 +8°C° 0 mm 6 mps 757 mmHg 95%
    07:00 +9°C° 0.1 mm 6 mps 757 mmHg 95%
    08:00 +9°C° 0.1 mm 6 mps 757 mmHg 95%
    09:00 +10°C° 0.1 mm 6 mps 756 mmHg 95%
    10:00 +10°C° 0.3 mm 6 mps 756 mmHg 94%
    11:00 +11°C° 0.3 mm 6 mps 756 mmHg 94%
    12:00 +11°C° 0.3 mm 7 mps 756 mmHg 93%
    13:00 +11°C° 0.1 mm 7 mps 756 mmHg 92%
    14:00 +11°C° 0.1 mm 7 mps 756 mmHg 90%
    15:00 +11°C° 0.1 mm 7 mps 756 mmHg 88%
    16:00 +11°C° 0.1 mm 7 mps 756 mmHg 89%
    17:00 +11°C° 0.1 mm 7 mps 756 mmHg 90%
    18:00 +11°C° 0.1 mm 8 mps 756 mmHg 91%
    19:00 +11°C° 0.1 mm 8 mps 756 mmHg 91%
    20:00 +11°C° 0.1 mm 8 mps 755 mmHg 91%
    21:00 +11°C° 0.1 mm 8 mps 755 mmHg 90%
    22:00 +11°C° 0.1 mm 8 mps 755 mmHg 90%
    23:00 +11°C° 0.1 mm 9 mps 754 mmHg 89%

    24 January, Wednesday

    Time Temperature Precipitation Wind Pressure Humidity
    00:00 +11°C° 0.1 mm 9 mps 754 mmHg 89%
    01:00 +11°C° 0.1 mm 10 mps 753 mmHg 88%
    02:00 +11°C° 0.1 mm 10 mps 753 mmHg 87%
    03:00 +11°C° 0.1 mm 10 mps 752 mmHg 87%
    04:00 +11°C° 0.1 mm 10 mps 752 mmHg 87%
    05:00 +11°C° 0.1 mm 11 mps 752 mmHg 86%
    06:00 +11°C° 0.1 mm 11 mps 751 mmHg 86%
    07:00 +11°C° 1.1 mm 10 mps 751 mmHg 88%
    08:00 +11°C° 1.1 mm 9 mps 751 mmHg 89%
    09:00 +10°C° 1.1 mm 9 mps 751 mmHg 90%
    10:00 +10°C° 2.6 mm 8 mps 751 mmHg 90%
    11:00 +9°C° 2.6 mm 7 mps 750 mmHg 89%
    12:00 +8°C° 2.6 mm 6 mps 750 mmHg 89%
    13:00 +7°C° 2.3 mm 5 mps 750 mmHg 89%
    14:00 +7°C° 2.3 mm 5 mps 749 mmHg 88%
    15:00 +6°C° 2.3 mm 4 mps 749 mmHg 88%
    16:00 +6°C° 0.4 mm 4 mps 749 mmHg 88%
    17:00 +6°C° 0.4 mm 4 mps 750 mmHg 88%
    18:00 +6°C° 0.4 mm 5 mps 750 mmHg 87%
    19:00 +6°C° 0 mm 5 mps 750 mmHg 87%
    20:00 +5°C° 0 mm 5 mps 751 mmHg 86%
    21:00 +5°C° 0 mm 5 mps 751 mmHg 85%
    22:00 +5°C° 0.1 mm 5 mps 751 mmHg 85%
    23:00 +5°C° 0.1 mm 5 mps 751 mmHg 86%

    25 January, Thursday

    Time Temperature Precipitation Wind Pressure Humidity
    00:00 +5°C° 0.1 mm 5 mps 751 mmHg 87%
    01:00 +5°C° 0 mm 5 mps 751 mmHg 86%
    02:00 +5°C° 0 mm 5 mps 751 mmHg 86%
    03:00 +3°C° 0 mm 5 mps 751 mmHg 86%
    04:00 +3°C° 0 mm 5 mps 751 mmHg 84%
    05:00 +3°C° 0 mm 5 mps 751 mmHg 83%
    06:00 +3°C° 0 mm 5 mps 751 mmHg 81%
    07:00 +3°C° 0 mm 5 mps 751 mmHg 80%
    08:00 +3°C° 0 mm 6 mps 751 mmHg 80%
    09:00 +4°C° 0 mm 6 mps 751 mmHg 79%
    10:00 +5°C° 0 mm 7 mps 751 mmHg 76%
    11:00 +5°C° 0 mm 7 mps 751 mmHg 73%
    12:00 +6°C° 0 mm 8 mps 751 mmHg 70%
    13:00 +6°C° 0 mm 7 mps 751 mmHg 71%
    14:00 +7°C° 0 mm 6 mps 751 mmHg 73%
    15:00 +7°C° 0 mm 5 mps 751 mmHg 75%
    16:00 +6°C° 0 mm 4 mps 752 mmHg 78%
    17:00 +5°C° 0 mm 4 mps 752 mmHg 82%
    18:00 +4°C° 0 mm 3 mps 752 mmHg 85%
    19:00 +4°C° 0 mm 3 mps 753 mmHg 86%
    20:00 +3°C° 0 mm 3 mps 753 mmHg 87%
    21:00 +3°C° 0 mm 3 mps 753 mmHg 88%
    22:00 +3°C° 0 mm 3 mps 754 mmHg 88%
    23:00 +2°C° 0 mm 3 mps 754 mmHg 88%

    26 January, Friday

    Time Temperature Precipitation Wind Pressure Humidity
    00:00 +2°C° 0 mm 3 mps 754 mmHg 89%
    01:00 +2°C° 0 mm 3 mps 755 mmHg 89%
    02:00 +2°C° 0 mm 3 mps 755 mmHg 90%
    03:00 +2°C° 0 mm 3 mps 755 mmHg 90%
    04:00 +2°C° 0 mm 3 mps 756 mmHg 91%
    05:00 +2°C° 0 mm 3 mps 757 mmHg 91%
    06:00 0°C° 0 mm 4 mps 757 mmHg 92%
    07:00 +1°C° 0 mm 4 mps 758 mmHg 91%
    08:00 +1°C° 0 mm 4 mps 759 mmHg 90%
    09:00 +1°C° 0 mm 4 mps 760 mmHg 90%
    10:00 +3°C° 0 mm 4 mps 760 mmHg 86%
    11:00 +4°C° 0 mm 4 mps 761 mmHg 83%
    12:00 +6°C° 0 mm 5 mps 762 mmHg 79%
    13:00 +6°C° 0 mm 4 mps 762 mmHg 78%
    14:00 +6°C° 0 mm 4 mps 763 mmHg 77%
    15:00 +6°C° 0 mm 4 mps 763 mmHg 76%
    16:00 +5°C° 0 mm 3 mps 764 mmHg 80%
    17:00 +4°C° 0 mm 3 mps 765 mmHg 85%
    18:00 +4°C° 0 mm 2 mps 766 mmHg 89%
    19:00 +3°C° 0 mm 2 mps 766 mmHg 89%
    20:00 +3°C° 0 mm 2 mps 767 mmHg 90%
    21:00 +2°C° 0 mm 2 mps 768 mmHg 90%
    22:00 +2°C° 0 mm 2 mps 768 mmHg 91%
    23:00 +2°C° 0 mm 2 mps 769 mmHg 91%
    Show more